Weather History for Stevens Point, WI

Change the Weather History Date:

Sunday, November 11, 2012

  Actual Average Record
Temperature  
Mean Temperature 44 °F -  
Max Temperature 59 °F 42 °F 66 °F (1964)
Min Temperature 27 °F 26 °F 1 °F (1986)
Degree Days  
Heating Degree Days 22    
Moisture  
Dew Point 44 °F    
Average Humidity 85    
Maximum Humidity 98    
Minimum Humidity 64    
Precipitation  
Precipitation 0.90 in - - ()
Sea Level Pressure  
Sea Level Pressure 29.71 in    
Wind  
Wind Speed 12 mph (SW)    
Max Wind Speed 20 mph    
Max Gust Speed 25 mph    
Visibility 9 miles    
Events Rain    
Averages and records for this station are not official NWS values.
T = Trace of Precipitation, MM = Missing Value Source: NWS Daily Summary

Daily Weather History Graph

Daily Weather History Graph

Search for Another Location

Airport:

Trip Planner

Search our weather history database for the weather conditions in past years. The results will help you decide how hot, cold, wet, or windy it might be!

Date:

Astronomy

Nov. 11, 2012 Rise Set
Actual Time 6:49 AM CST 4:34 PM CST
Civil Twilight 6:18 AM CST 5:05 PM CST
Nautical Twilight 5:43 AM CST 5:40 PM CST
Astronomical Twilight 5:09 AM CST 6:14 PM CST
Moon 3:58 AM CST (11/11) 3:01 PM CST (11/11)
Length of Visible Light 10h 46m
Length of Day
9h 44m
Waning Crescent, 7% of the Moon is Illuminated
Nov 11
Waning Crescent
Nov 13
New
Nov 20
First Quarter
Nov 28
Full
Dec 6
Last Quarter

Hourly Weather History & Observations

Time (CST) Temp. Windchill Dew Point Humidity Pressure Visibility Wind Dir Wind Speed Gust Speed Precip Events Conditions
12:15 AM 59.2 °F - 49.1 °F 69% 29.71 in 10.0 mi South 12.7 mph - N/A   Scattered Clouds
12:35 AM 58.8 °F - 48.4 °F 68% 29.71 in 10.0 mi South 15.0 mph 18.4 mph N/A   Mostly Cloudy
12:55 AM 59.0 °F - 47.7 °F 66% 29.71 in 10.0 mi South 11.5 mph 17.3 mph N/A   Overcast
1:15 AM 59.2 °F - 47.1 °F 64% 29.71 in 10.0 mi South 13.8 mph 21.9 mph N/A   Overcast
1:35 AM 59.2 °F - 47.5 °F 65% 29.71 in 10.0 mi South 12.7 mph 21.9 mph N/A   Overcast
1:55 AM 59.2 °F - 47.5 °F 65% 29.71 in 10.0 mi South 13.8 mph 19.6 mph N/A   Overcast
2:15 AM 58.6 °F - 48.2 °F 68% 29.73 in 10.0 mi South 16.1 mph 21.9 mph N/A   Overcast
2:35 AM 57.6 °F - 48.4 °F 71% 29.72 in 10.0 mi South 13.8 mph - N/A   Overcast
2:55 AM 57.6 °F - 48.4 °F 71% 29.73 in 10.0 mi South 15.0 mph 21.9 mph N/A   Overcast
3:15 AM 58.1 °F - 48.2 °F 70% 29.72 in 10.0 mi South 15.0 mph 19.6 mph N/A   Overcast
3:35 AM 57.4 °F - 48.2 °F 71% 29.73 in 10.0 mi South 17.3 mph 21.9 mph N/A   Overcast
3:55 AM 57.7 °F - 48.4 °F 71% 29.74 in 10.0 mi South 17.3 mph 23.0 mph N/A   Overcast
4:15 AM 57.6 °F - 48.2 °F 71% 29.73 in 10.0 mi South 16.1 mph 21.9 mph N/A   Overcast
4:35 AM 57.4 °F - 48.2 °F 71% 29.73 in 10.0 mi South 12.7 mph 17.3 mph N/A   Mostly Cloudy
4:55 AM 57.2 °F - 48.2 °F 72% 29.71 in 10.0 mi South 9.2 mph - N/A   Mostly Cloudy
5:15 AM 56.7 °F - 48.4 °F 74% 29.71 in 10.0 mi South 12.7 mph 18.4 mph N/A   Mostly Cloudy
5:35 AM 55.0 °F - 50.4 °F 84% 29.72 in 10.0 mi South 13.8 mph 23.0 mph N/A   Scattered Clouds
5:55 AM 55.6 °F - 50.7 °F 84% 29.72 in 10.0 mi South 15.0 mph 21.9 mph N/A   Mostly Cloudy
6:15 AM 55.4 °F - 50.5 °F 84% 29.73 in 10.0 mi South 13.8 mph 20.7 mph N/A   Overcast
6:55 AM 54.5 °F - 50.0 °F 85% 29.69 in 10.0 mi SSE 3.5 mph - N/A   Mostly Cloudy
7:15 AM 53.6 °F - 50.0 °F 88% 29.71 in 10.0 mi SSE 8.1 mph - N/A   Scattered Clouds
7:35 AM 54.1 °F - 50.0 °F 86% 29.69 in 10.0 mi SSE 9.2 mph - N/A   Scattered Clouds
7:55 AM 54.5 °F - 50.0 °F 85% 29.70 in 10.0 mi South 8.1 mph - N/A   Clear
8:15 AM 55.2 °F - 50.2 °F 83% 29.71 in 10.0 mi SSE 9.2 mph - N/A   Scattered Clouds
8:55 AM 56.3 °F - 50.2 °F 80% 29.70 in 10.0 mi South 16.1 mph 25.3 mph N/A   Overcast
9:35 AM 57.4 °F - 50.4 °F 77% 29.69 in 10.0 mi South 19.6 mph 24.2 mph N/A   Mostly Cloudy
9:55 AM 57.4 °F - 50.5 °F 78% 29.69 in 10.0 mi South 12.7 mph 18.4 mph N/A   Overcast
10:15 AM 57.6 °F - 50.4 °F 77% 29.68 in 10.0 mi South 9.2 mph 19.6 mph N/A   Overcast
10:35 AM 57.4 °F - 50.5 °F 78% 29.68 in 10.0 mi South 11.5 mph 16.1 mph N/A   Overcast
10:55 AM 55.8 °F - 51.3 °F 85% 29.66 in 7.0 mi South 9.2 mph - 0.02 in Rain Heavy Rain
11:15 AM 54.1 °F - 52.3 °F 94% 29.67 in 3.0 mi SSW 9.2 mph - 0.12 in Rain Heavy Rain
11:35 AM 53.6 °F - 52.2 °F 95% 29.69 in 3.0 mi SSW 13.8 mph 19.6 mph 0.23 in Rain Heavy Rain
11:55 AM 52.9 °F - 52.0 °F 97% 29.66 in 4.0 mi South 8.1 mph 12.7 mph 0.33 in Rain Heavy Rain
12:15 PM 52.9 °F - 52.2 °F 97% 29.64 in 5.0 mi South 8.1 mph - 0.05 in Rain Rain
12:35 PM 52.9 °F - 52.2 °F 97% 29.64 in 4.0 mi South 10.4 mph - 0.11 in Rain Rain
12:55 PM 52.9 °F - 52.2 °F 97% 29.63 in 5.0 mi South 6.9 mph - 0.15 in Rain Light Rain
1:35 PM 52.9 °F - 52.3 °F 98% 29.62 in 5.0 mi South 6.9 mph - 0.07 in Rain Light Rain
1:55 PM 51.3 °F - 48.9 °F 92% 29.63 in 7.0 mi WSW 9.2 mph - 0.10 in Rain Light Rain
2:15 PM 49.6 °F - 48.2 °F 95% 29.65 in 5.0 mi West 5.8 mph - 0.06 in Rain Rain
2:35 PM 48.7 °F - 47.3 °F 95% 29.65 in 7.0 mi West 9.2 mph - 0.08 in Rain Rain
2:55 PM 47.5 °F - 45.9 °F 94% 29.64 in 10.0 mi WNW 5.8 mph - 0.11 in Rain Light Rain
3:15 PM 46.4 °F 45.2 °F 44.8 °F 94% 29.65 in 10.0 mi West 3.5 mph - 0.01 in Rain Light Rain
3:35 PM 45.9 °F - 44.8 °F 96% 29.64 in 10.0 mi Calm Calm - 0.01 in Rain Light Rain
3:55 PM 45.5 °F - 44.6 °F 97% 29.65 in 10.0 mi Calm Calm - 0.03 in Rain Rain
4:15 PM 44.8 °F - 43.9 °F 97% 29.64 in 10.0 mi Calm Calm - 0.02 in Rain Rain
4:35 PM 44.1 °F 40.8 °F 43.3 °F 97% 29.66 in 10.0 mi West 5.8 mph - 0.06 in Rain Rain
4:55 PM 43.0 °F 39.5 °F 41.9 °F 96% 29.66 in 7.0 mi West 5.8 mph - 0.09 in Rain Rain
5:15 PM 41.4 °F 36.8 °F 40.3 °F 96% 29.68 in 10.0 mi West 6.9 mph - 0.04 in Rain Rain
5:35 PM 39.2 °F 33.0 °F 37.6 °F 94% 29.70 in 10.0 mi West 9.2 mph - 0.05 in Rain Light Rain
5:55 PM 37.9 °F 32.7 °F 36.5 °F 95% 29.72 in 10.0 mi West 6.9 mph 17.3 mph 0.06 in Rain Light Rain
6:15 PM 37.4 °F 30.8 °F 36.1 °F 95% 29.73 in 10.0 mi West 9.2 mph - 0.01 in Rain Light Rain
6:35 PM 36.5 °F 29.7 °F 35.1 °F 95% 29.73 in 10.0 mi West 9.2 mph 17.3 mph 0.01 in   Light Drizzle
6:55 PM 35.6 °F 28.0 °F 34.2 °F 94% 29.72 in 10.0 mi West 10.4 mph - 0.01 in   Light Drizzle
7:15 PM 34.0 °F 25.0 °F 32.9 °F 96% 29.76 in 10.0 mi West 12.7 mph 21.9 mph N/A   Overcast
7:35 PM 33.1 °F 24.4 °F 32.0 °F 96% 29.76 in 10.0 mi West 11.5 mph 20.7 mph N/A   Overcast
7:55 PM 32.0 °F 23.6 °F 31.1 °F 96% 29.74 in 3.0 mi West 10.4 mph 18.4 mph N/A   Overcast
8:15 PM 32.0 °F 23.0 °F 30.7 °F 95% 29.79 in 10.0 mi West 11.5 mph 16.1 mph N/A   Overcast
8:35 PM 32.0 °F 22.1 °F 30.6 °F 94% 29.79 in 10.0 mi West 13.8 mph 21.9 mph N/A   Overcast
8:55 PM 31.6 °F 22.1 °F 29.7 °F 92% 29.81 in 10.0 mi West 12.7 mph 18.4 mph N/A   Overcast
9:15 PM 31.5 °F 22.3 °F 29.5 °F 92% 29.81 in 10.0 mi West 11.5 mph 19.6 mph N/A   Overcast
9:35 PM 30.6 °F 21.8 °F 28.2 °F 91% 29.84 in 10.0 mi West 10.4 mph 21.9 mph N/A   Overcast
9:55 PM 30.6 °F 20.2 °F 27.0 °F 86% 29.84 in 10.0 mi West 13.8 mph 17.3 mph N/A   Overcast
10:15 PM 30.0 °F 21.1 °F 27.3 °F 90% 29.83 in 10.0 mi West 10.4 mph 19.6 mph N/A   Overcast
10:35 PM 29.8 °F 20.9 °F 27.0 °F 89% 29.81 in 10.0 mi WNW 10.4 mph - N/A   Overcast
11:15 PM 28.4 °F 17.0 °F 24.6 °F 86% 29.84 in 10.0 mi West 15.0 mph 23.0 mph N/A   Overcast
11:35 PM 27.9 °F 16.8 °F 22.6 °F 81% 29.86 in 10.0 mi West 13.8 mph 18.4 mph N/A   Overcast